2021-059CM (48962 NORAD) Tracking and Keplerian Element Data

This shows tracking and keplerian element data for the satellite.

Feedback or suggestion? Click here.




ElementValue
Catalog48962
Name2021-059CM
Epoch Orbit486
Epoch Day208.97331544
Epoch Year2021
RAAN337.3408
Inclination97.5136
Eccentricity0.0010242
Argument of Perigee134.6414
Mean Anonmoly225.5654
Mean Motion15.13197901
Decay Rate1.873E-05
L11 48962U 21059CM 21208.97331544 .00001873 00000-0 10909-3 0 9996
L22 48962 97.5136 337.3408 0010242 134.6414 225.5654 15.13197901 4866

Live tracking and technical data element details for 2021-059CM (NORAD 48962). 2021-059CM can be tracked NOW for your location showing map with azimuth and elevation plus other details from your city location.

Track the satellite on the map from your city or location and see movement details for azimuth, elevation, latitude, longitude, range, height, and movement on the map or in text.







IsCatalogInMostPopularTable: catalog: 48962, numindb: 17
Update: records affected: 1



GetName: 48962 2021-059CM

Hit Count: updated at: Sun, 26 Sep 2021 15:03:06 GMT